Flag for U.S.A. Weather past 2 weeks in Colorado Springs, Colorado, U.S.A.

Now
54 °F

Passing clouds.


Feels Like: 51 °F
Forecast: 51 / 73 °F
Wind: 9 mph from North

Location: City Of Colorado Springs Municipal Airport

Current Time: Aug 2, 2014 at 3:21:40 AM

Latest Report: Aug 2, 2014 at 2:54 AM


Visibility: 10 mi

Pressure: 30.14 "Hg

Humidity: 77%

Dew point: 47 °F

Location of Colorado SpringsLocation

Historic Weather in Colorado Springs — Graph

°F

Colorado Springs temperature yesterday

Maximum temperature yesterday: 71 °F (at 11:54 AM)
Minimum temperature yesterday: 54 °F (at 5:54 AM)
Average temperature yesterday: 63 °F

Past Weeks' High & Low Weather Summary

 TemperatureHumidityPressure
High94 °F (Jul 24, 3:54 PM)97% (Jul 27, 11:54 PM)30.37 "Hg (Jul 27, 11:54 PM)
Low54 °F (Aug 1, 5:54 AM)15% (Jul 20, 3:54 PM)29.76 "Hg (Jul 24, 4:54 PM)
Average70 °F57%30.02 "Hg
* Reported Jul 18 1:54 AM — Aug 2 1:54 AM, Colorado Springs, Weather by CustomWeather, © 2014

Note: Actual official high and low records may vary slightly from our data, if they occured in-between our weather recording intervals... More about our weather records

Advertising

Colorado Springs weather history for previous 24 hours

 ConditionsComfort  
Time TempWeatherWind HumidityBarometerVisibility
1:54 AM
Aug 2
54 °FPassing clouds.8 mph80%30.15 "Hg10 mi
12:54 AM55 °FPassing clouds.6 mph83%30.15 "Hg10 mi
11:54 PM
Aug 1
57 °FPassing clouds.5 mph81%30.15 "Hg10 mi
10:54 PM60 °FPassing clouds.3 mph78%30.14 "Hg10 mi
9:54 PM60 °FPassing clouds.5 mph78%30.15 "Hg10 mi
8:54 PM65 °FBroken clouds.No wind63%30.14 "Hg10 mi
7:54 PM66 °FBroken clouds.6 mph65%30.14 "Hg10 mi
6:54 PM68 °FBroken clouds.7 mph57%30.15 "Hg10 mi
5:54 PM69 °FPartly sunny.5 mph55%30.14 "Hg10 mi
4:54 PM69 °FPartly sunny.6 mph55%30.14 "Hg10 mi
3:54 PM71 °FPartly sunny.5 mph47%30.14 "Hg10 mi
2:54 PM69 °FBroken clouds.5 mph51%30.14 "Hg10 mi
1:54 PM69 °FBroken clouds.7 mph51%30.14 "Hg10 mi
12:54 PM70 °FBroken clouds.No wind46%30.12 "Hg10 mi
11:54 AM71 °FBroken clouds.7 mph51%30.11 "Hg10 mi
10:54 AM69 °FPartly sunny.8 mph53%30.14 "Hg10 mi
9:54 AM67 °FPartly sunny.3 mph59%30.14 "Hg10 mi
8:54 AM63 °FPartly sunny.3 mph78%30.16 "Hg10 mi
7:54 AM60 °FPartly sunny.6 mph86%30.15 "Hg9 mi
6:54 AM56 °FPassing clouds.5 mph90%30.16 "Hg9 mi
5:54 AM54 °FPartly cloudy.5 mph90%30.16 "Hg9 mi
4:54 AM55 °FPassing clouds.5 mph90%30.14 "Hg9 mi
3:54 AM55 °FPassing clouds.8 mph90%30.14 "Hg9 mi
Weather by CustomWeather, © 2014

See weather overviewHow to use our weather pages